This is the latest recevied weather packets stored in our database for station/object IW1RID-3. If no packets are shown the sender has not sent any weather packets the latest 10 day(s).
| Time | Temp. | Humidity | Pressure | Rain* | Wind** | Luminosity | Snow |
|---|---|---|---|---|---|---|---|
| 1788665515 | 21.67° C | 85% | 1077.1 hPa | - | - | - | - |
| 1788664310 | 21.11° C | 87% | 1077 hPa | - | - | - | - |
| 1788663106 | 21.67° C | 87% | 1077.1 hPa | - | - | - | - |
| 1788661902 | 21.67° C | 86% | 1077.1 hPa | - | - | - | - |
| 1788660721 | 22.22° C | 85% | 1077 hPa | - | - | - | - |
| 1788659493 | 22.78° C | 83% | 1076.8 hPa | - | - | - | - |
| 1788658290 | 22.22° C | 85% | 1077 hPa | - | - | - | - |
| 1788657084 | 22.78° C | 85% | 1076.8 hPa | - | - | - | - |
| 1788655880 | 22.22° C | 84% | 1076.9 hPa | - | - | - | - |
| 1788654675 | 22.22° C | 85% | 1076.8 hPa | - | - | - | - |
| 1788653471 | 23.33° C | 83% | 1076.9 hPa | - | - | - | - |
| 1788652266 | 23.33° C | 84% | 1076.9 hPa | - | - | - | - |
| 1788651062 | 23.33° C | 83% | 1076.7 hPa | - | - | - | - |
| 1788649857 | 23.89° C | 82% | 1076.6 hPa | - | - | - | - |
| 1788648652 | 23.89° C | 81% | 1076.7 hPa | - | - | - | - |
| 1788647448 | 24.44° C | 79% | 1076.8 hPa | - | - | - | - |
| 1788646244 | 24.44° C | 80% | 1076.6 hPa | - | - | - | - |
| 1788645039 | 25° C | 81% | 1076.6 hPa | - | - | - | - |
| 1788643834 | 25.56° C | 83% | 1076.5 hPa | - | - | - | - |
| 1788642629 | 25.56° C | 82% | 1076.5 hPa | - | - | - | - |
| 1788641425 | 26.11° C | 82% | 1076.5 hPa | - | - | - | - |
| 1788640220 | 26.11° C | 82% | 1076.4 hPa | - | - | - | - |
| 1788639016 | 26.11° C | 83% | 1076.2 hPa | - | - | - | - |
| 1788637811 | 26.11° C | 82% | 1076 hPa | - | - | - | - |
| 1788636607 | 26.11° C | 81% | 1076 hPa | - | - | - | - |
* Rain since midnight (hover to see other rain measurements)
** Current wind speed in m/s (hover to see current wind gust speed)